IRIDIUM 12 [+]

Last updated on Wed Mar 21 2018 20:48:18 GMT+0000 (Greenwich Mean Time)

1 24837U 97030B 18080.50617501 .00000128 00000-0 38737-4 0 9998 2 24837 86.3957 234.1211 0002106 92.7110 331.6016 14.34214390 86697
UTC large
Height (km)
Speed (km/s)
/
Latitude / Longitude
Inclination (degrees)
Orbital Period (minutes)
Azimuth
Elevation
Range (km)
Doppler Factor

Next 0 passes for location: London (51.5072 / 0.1276)

Sorry there are no passes over London.